FW8630 Weather Reports


Display with metric or nautical units.
time (UTC)temp
F
wind
direction
speed
MPH
gust
MPH
rain 1hr
in
rain 24hr
in
rain mn
in
humidity
%
barometer
mb
20260906051535 55 324 2.0 5.0 0.00 0.03 0.01 88 1013.8
20260906050035 55 337 2.0 6.0 0.00 0.03 0.01 88 1013.5
20260906044526 54 337 2.0 4.0 0.00 0.03 0.01 88 1013.3
20260906043024 54 336 3.0 6.0 0.00 0.03 0.01 88 1013.0
20260906041520 54 331 2.0 5.0 0.00 0.03 0.01 88 1012.8
20260906040018 54 323 1.0 4.0 0.00 0.03 0.01 88 1012.5
20260906034520 55 317 2.0 6.0 0.00 0.03 0.01 88 1012.3
20260906033014 55 329 3.0 5.0 0.00 0.03 0.01 88 1012.0
20260906031538 55 329 2.0 5.0 0.00 0.03 0.01 88 1011.8
20260906030011 55 325 1.0 3.0 0.00 0.03 0.01 88 1011.4
20260906024528 55 313 1.0 4.0 0.00 0.03 0.01 88 1011.1
20260906023007 55 336 3.0 6.0 0.00 0.03 0.01 88 1010.8
20260906021503 55 321 2.0 3.0 0.00 0.03 0.01 88 1010.6
20260906020002 55 313 2.0 6.0 0.00 0.03 0.01 88 1010.3
20260906014600 55 315 2.0 5.0 0.00 0.03 0.01 88 1010.1
20260906013105 54 329 3.0 6.0 0.00 0.03 0.01 88 1009.9
20260906011556 54 319 2.0 5.0 0.01 0.03 0.01 88 1009.8
20260906003051 54 332 2.0 5.0 0.01 0.03 0.01 89 1009.2
20260905234521 55 329 2.0 6.0 0.00 0.02 0.00 89 1008.7
20260905233020 55 300 2.0 5.0 0.00 0.02 0.00 89 1008.6
20260905231517 55 331 3.0 5.0 0.00 0.02 0.00 89 1008.5
20260905230029 55 329 1.0 11.0 0.00 0.02 0.00 90 1008.2
20260905224518 55 14 1.0 3.0 0.00 0.02 0.00 91 1008.1
20260905223015 56 42 1.0 4.0 0.01 0.02 0.00 91 1007.7
20260905221508 56 36 3.0 5.0 0.02 0.02 0.00 91 1007.7
20260905220006 56 35 1.0 4.0 0.02 0.02 0.02 91 1007.5
20260905214505 56 329 1.0 4.0 0.02 0.02 0.02 93 1007.2
20260905213002 57 294 1.0 5.0 0.02 0.02 0.02 93 1007.1
20260905211504 57 316 0.0 11.0 0.01 0.01 0.01 93 1007.0
20260905210105 58 290 3.0 8.0 0.00 0.01 0.00 93 1006.8
20260905204607 58 292 2.0 7.0 0.00 0.01 0.00 93 1006.7
20260905203108 58 295 0.0 8.0 0.00 0.01 0.00 93 1006.6
20260905201602 58 275 1.0 7.0 0.00 0.01 0.00 93 1006.5
20260905200115 58 242 3.0 13.0 0.00 0.05 0.00 93 1006.3
20260905194553 58 227 2.0 10.0 0.00 0.05 0.00 93 1006.3
20260905193056 58 261 2.0 10.0 0.00 0.05 0.00 93 1006.2
20260905191551 59 267 2.0 8.0 0.00 0.05 0.00 92 1006.2
20260905190050 59 248 3.0 12.0 0.00 0.05 0.00 93 1006.0
20260905184551 59 269 1.0 7.0 0.00 0.05 0.00 92 1006.0
20260905183056 59 278 2.0 9.0 0.00 0.05 0.00 93 1006.0
20260905181548 59 237 3.0 9.0 0.00 0.05 0.00 93 1005.9
20260905180054 59 284 1.0 8.0 0.00 0.05 0.00 93 1005.8
20260905174552 59 253 2.0 7.0 0.00 0.05 0.00 93 1005.8
20260905173058 59 259 2.0 7.0 0.00 0.05 0.00 93 1005.6
20260905171542 59 217 1.0 8.0 0.00 0.05 0.00 93 1005.4
20260905170041 59 272 1.0 7.0 0.00 0.05 0.00 92 1005.4
20260905164541 59 240 2.0 10.0 0.00 0.05 0.00 92 1005.4
20260905163040 59 221 3.0 9.0 0.00 0.05 0.00 92 1005.2
20260905161537 59 297 1.0 8.0 0.00 0.05 0.00 90 1005.0
20260905160036 60 269 1.0 6.0 0.00 0.05 0.00 89 1004.8
20260905154536 61 249 2.0 5.0 0.00 0.05 0.00 90 1004.6
20260905153034 60 284 1.0 4.0 0.00 0.05 0.00 89 1004.5
20260905151533 60 286 1.0 7.0 0.00 0.05 0.00 91 1004.2
20260905150032 60 232 0.0 4.0 0.00 0.05 0.00 91 1004.3
20260905144532 59 287 0.0 4.0 0.00 0.05 0.00 90 1004.5
20260905143036 60 267 0.0 6.0 0.00 0.05 0.00 90 1004.4
20260905141531 60 263 3.0 8.0 0.00 0.05 0.00 88 1004.4
20260905140032 61 258 2.0 8.0 0.00 0.05 0.00 88 1004.5
20260905134535 61 215 3.0 8.0 0.00 0.05 0.00 88 1004.5
20260905133029 60 283 1.0 4.0 0.00 0.05 0.00 88 1004.4
20260905131528 61 269 2.0 8.0 0.00 0.05 0.00 87 1004.2
20260905130025 61 11 2.0 5.0 0.00 0.05 0.00 87 1003.8
20260905124533 61 294 1.0 7.0 0.00 0.05 0.00 87 1003.8
20260905123022 60 257 2.0 9.0 0.00 0.05 0.00 86 1003.6
20260905121521 61 301 2.0 9.0 0.00 0.05 0.00 85 1003.6
20260905120019 62 276 3.0 9.0 0.00 0.05 0.00 85 1003.4
20260905114517 62 284 2.0 9.0 0.00 0.05 0.00 85 1003.3
20260905113014 61 267 3.0 10.0 0.00 0.05 0.00 86 1003.0
20260905111513 61 280 3.0 9.0 0.00 0.05 0.00 87 1002.9
20260905110010 60 271 3.0 10.0 0.00 0.06 0.00 88 1002.8
20260905104510 60 277 3.0 13.0 0.00 0.06 0.00 89 1002.7
20260905103006 60 282 3.0 12.0 0.00 0.06 0.00 88 1002.4
20260905101502 60 319 4.0 14.0 0.00 0.06 0.00 87 1002.2
20260905100002 60 327 4.0 12.0 0.00 0.06 0.00 87 1002.0
20260905094558 59 288 5.0 14.0 0.00 0.06 0.00 87 1001.8
20260905093110 59 290 3.0 12.0 0.00 0.06 0.00 88 1001.7
20260905091603 58 315 5.0 12.0 0.00 0.06 0.00 89 1001.6
20260905090051 58 321 6.0 16.0 0.00 0.06 0.00 89 1001.3
20260905084549 58 286 3.0 14.0 0.00 0.06 0.00 89 1001.1
20260905083047 58 309 3.0 13.0 0.00 0.06 0.00 89 1001.0
20260905081546 58 300 4.0 13.0 0.00 0.06 0.00 90 1000.7
20260905080042 57 238 4.0 16.0 0.00 0.09 0.00 90 1000.4
20260905074541 57 272 5.0 14.0 0.00 0.09 0.00 89 1000.2
20260905073040 57 327 4.0 16.0 0.00 0.09 0.00 90 999.9
20260905071537 57 292 5.0 17.0 0.00 0.09 0.00 90 1000.0
20260905070041 57 313 4.0 9.0 0.00 0.09 0.00 89 999.8
20260905064535 57 316 7.0 18.0 0.00 0.09 0.00 89 999.6
20260905063032 57 274 4.0 17.0 0.00 0.09 0.00 90 999.4
20260905061530 57 302 6.0 17.0 0.00 0.09 0.00 90 999.2
20260905060027 57 269 5.0 14.0 0.00 0.09 0.00 89 998.9
20260905054532 57 215 4.0 17.0 0.00 0.09 0.00 89 998.7
20260905053023 57 288 2.0 11.0 0.00 0.09 0.00 89 998.6